Flag for U.S.A. Weather past 2 weeks in Cleveland, Ohio, U.S.A.

Now
80 °F

More clouds than sun.


Feels Like: 81 °F
Forecast: 67 / 80 °F
Wind: 21 mph from Southwest

Location: Cleveland-Hopkins International Airport

Current Time: May 25, 2015 at 1:41:31 PM

Latest Report: May 25, 2015 at 12:51 PM


Visibility: 10 mi

Pressure: 30.06 "Hg

Humidity: 51%

Dew point: 60 °F

Location of ClevelandLocation

Historic Weather in Cleveland — Graph

°F

Cleveland temperature yesterday

Maximum temperature yesterday: 82 °F (at 1:51 PM)
Minimum temperature yesterday: 50 °F (at 1:51 AM)
Average temperature yesterday: 68 °F

Past Weeks' High & Low Weather Summary

 TemperatureHumidityPressure
High87 °F (May 11, 2:51 PM)97% (May 17, 3:51 AM)30.50 "Hg (May 17, 3:51 AM)
Low36 °F (May 14, 4:51 AM)27% (May 23, 5:51 PM)29.82 "Hg (May 11, 5:51 PM)
Average62 °F64%30.15 "Hg
* Reported May 10 11:51 AM — May 25 11:51 AM, Cleveland, Weather by CustomWeather, © 2015

Note: Actual official high and low records may vary slightly from our data, if they occured in-between our weather recording intervals... More about our weather records

Advertising

Cleveland weather history for previous 24 hours

 ConditionsComfort  
Time TempWeatherWind HumidityBarometerVisibility
11:51 AM
Mon, May 25
76 °FMore clouds than sun.14 mph54%30.08 "Hg10 mi
10:51 AM74 °FMore clouds than sun.17 mph57%30.09 "Hg10 mi
9:51 AM76 °FBroken clouds.16 mph54%30.10 "Hg10 mi
8:51 AM71 °FMore clouds than sun.14 mph57%30.10 "Hg10 mi
7:51 AM70 °FBroken clouds.13 mph55%30.10 "Hg10 mi
6:51 AM69 °FPartly cloudy.10 mph57%30.09 "Hg10 mi
5:51 AM68 °FPassing clouds.12 mph57%30.09 "Hg10 mi
4:51 AM70 °FPassing clouds.13 mph51%30.08 "Hg10 mi
3:51 AM69 °FPartly cloudy.12 mph53%30.09 "Hg10 mi
2:51 AM66 °FPassing clouds.9 mph61%30.09 "Hg10 mi
1:51 AM65 °FPassing clouds.9 mph61%30.12 "Hg10 mi
12:51 AM67 °FPassing clouds.8 mph57%30.14 "Hg10 mi
11:51 PM
Sun, May 24
68 °FPassing clouds.9 mph55%30.14 "Hg10 mi
10:51 PM69 °FPartly cloudy.8 mph53%30.15 "Hg10 mi
9:51 PM71 °FPartly cloudy.8 mph49%30.14 "Hg10 mi
8:51 PM73 °FBroken clouds.6 mph44%30.14 "Hg10 mi
7:51 PM76 °FBroken clouds.8 mph40%30.15 "Hg10 mi
6:51 PM77 °FBroken clouds.8 mph39%30.16 "Hg10 mi
5:51 PM77 °FMostly cloudy.7 mph39%30.19 "Hg10 mi
4:51 PM78 °FMostly cloudy.5 mph33%30.20 "Hg10 mi
3:51 PM78 °FMostly cloudy.10 mph29%30.22 "Hg10 mi
2:51 PM79 °FMostly cloudy.14 mph29%30.24 "Hg10 mi
1:51 PM82 °FScattered clouds.9 mph27%30.25 "Hg10 mi
Weather by CustomWeather, © 2015

See weather overviewHow to use our weather pages